| time (UTC) | temp C | wind direction | speed KPH | gust KPH | rain 1hr cm | rain 24hr cm | rain mn cm | humidity % | barometer mb |
| 20260506084551 | -17 | 181 | 11.3 | 20.9 | 0.00 | 0.00 | 0.00 | 1008.7 | |
| 20260506083047 | -17 | 173 | 17.7 | 25.7 | 0.00 | 0.00 | 0.00 | 1008.3 | |
| 20260506081547 | -17 | 158 | 19.3 | 24.1 | 0.00 | 0.00 | 0.00 | 1008.2 | |
| 20260506073043 | -17 | 170 | 19.3 | 25.7 | 0.00 | 0.00 | 0.00 | 1007.9 | |
| 20260506071541 | -17 | 173 | 12.9 | 19.3 | 0.00 | 0.00 | 0.00 | 1008.0 | |
| 20260506061527 | -17 | 123 | 8.0 | 16.1 | 0.00 | 0.00 | 0.00 | 1008.3 | |
| 20260506044509 | -17 | 184 | 9.7 | 17.7 | 0.00 | 0.00 | 0.00 | 1008.7 | |
| 20260506043001 | -17 | 182 | 4.8 | 11.3 | 0.00 | 0.00 | 0.00 | 1009.2 | |
| 20260506041606 | -17 | 155 | 8.0 | 11.3 | 0.00 | 0.00 | 0.00 | 1009.0 | |
| 20260506040053 | -17 | 133 | 19.3 | 25.7 | 0.00 | 0.00 | 0.00 | 1009.1 | |
| 20260506034553 | -17 | 165 | 12.9 | 19.3 | 0.00 | 0.00 | 0.00 | 1009.0 | |
| 20260506033045 | -17 | 189 | 11.3 | 16.1 | 0.00 | 0.00 | 0.00 | 1009.0 | |
| 20260506031541 | -17 | 158 | 12.9 | 22.5 | 0.00 | 0.00 | 0.00 | 1009.1 | |
| 20260506030036 | -17 | 180 | 12.9 | 19.3 | 0.00 | 0.00 | 0.00 | 1009.0 | |
| 20260506024537 | -17 | 186 | 17.7 | 24.1 | 0.00 | 0.00 | 0.00 | 1008.9 | |
| 20260506023028 | -17 | 188 | 14.5 | 24.1 | 0.00 | 0.00 | 0.00 | 1008.9 | |
| 20260506021524 | -17 | 194 | 9.7 | 17.7 | 0.00 | 0.00 | 0.00 | 1008.8 | |
| 20260506020023 | -17 | 169 | 8.0 | 16.1 | 0.00 | 0.00 | 0.00 | 1009.2 | |
| 20260506014518 | -17 | 158 | 14.5 | 20.9 | 0.00 | 0.00 | 0.00 | 1009.0 | |
| 20260506013024 | -17 | 182 | 12.9 | 17.7 | 0.00 | 0.00 | 0.00 | 1009.1 | |
| 20260506011511 | -17 | 190 | 6.4 | 9.7 | 0.00 | 0.00 | 0.00 | 1009.0 | |
| 20260506010006 | -17 | 207 | 0.0 | 16.1 | 0.00 | 0.00 | 0.00 | 1009.1 | |
| 20260506004501 | -17 | 182 | 9.7 | 14.5 | 0.00 | 0.00 | 0.00 | 1009.1 | |
| 20260506003057 | -17 | 329 | 6.4 | 12.9 | 0.00 | 0.00 | 0.00 | 1008.3 | |
| 20260506001612 | -17 | 276 | 8.0 | 22.5 | 0.00 | 0.00 | 0.00 | 1008.7 | |
| 20260506000049 | -17 | 168 | 1.6 | 6.4 | 0.00 | 0.00 | 0.00 | 1008.2 | |
| 20260505234549 | -17 | 212 | 1.6 | 4.8 | 0.00 | 0.00 | 0.00 | 1008.2 | |
| 20260505233045 | -17 | 210 | 3.2 | 11.3 | 0.00 | 0.00 | 0.00 | 1007.7 | |
| 20260505231541 | -17 | 304 | 1.6 | 8.0 | 0.00 | 0.00 | 0.00 | 1007.5 | |
| 20260505230036 | -17 | 294 | 4.8 | 14.5 | 0.00 | 0.00 | 0.00 | 1007.2 | |
| 20260505224536 | -17 | 333 | 11.3 | 22.5 | 0.00 | 0.00 | 0.00 | 1007.0 | |
| 20260505223031 | -17 | 360 | 14.5 | 29.0 | 0.00 | 0.00 | 0.00 | 1006.4 | |
| 20260505221519 | -17 | 288 | 9.7 | 19.3 | 0.00 | 0.00 | 0.00 | 1006.3 | |
| 20260505220026 | -17 | 292 | 4.8 | 14.5 | 0.00 | 0.00 | 0.00 | 1006.1 | |
| 20260505214514 | -17 | 291 | 3.2 | 12.9 | 0.00 | 0.00 | 0.00 | 1005.8 | |
| 20260505213006 | -17 | 302 | 12.9 | 17.7 | 0.00 | 0.00 | 0.00 | 1005.6 | |
| 20260505211502 | -17 | 325 | 8.0 | 17.7 | 0.00 | 0.00 | 0.00 | 1005.2 | |
| 20260505210106 | -17 | 287 | 6.4 | 17.7 | 0.00 | 0.00 | 0.00 | 1004.9 | |
| 20260505204553 | -17 | 316 | 9.7 | 20.9 | 0.00 | 0.00 | 0.00 | 1004.6 | |
| 20260505203050 | -17 | 287 | 8.0 | 19.3 | 0.00 | 0.00 | 0.00 | 1004.4 | |
| 20260505201550 | -17 | 360 | 11.3 | 22.5 | 0.00 | 0.00 | 0.00 | 1003.9 | |
| 20260505200038 | -17 | 78 | 4.8 | 14.5 | 0.00 | 0.00 | 0.00 | 1003.4 | |
| 20260505194534 | -17 | 355 | 12.9 | 24.1 | 0.00 | 0.00 | 0.00 | 1003.0 | |
| 20260505193042 | -17 | 295 | 14.5 | 27.4 | 0.00 | 0.00 | 0.00 | 1002.7 | |
| 20260505191524 | -17 | 350 | 9.7 | 24.1 | 0.00 | 0.00 | 0.00 | 1002.4 | |
| 20260505190031 | -17 | 28 | 16.1 | 25.7 | 0.00 | 0.00 | 0.00 | 1002.1 | |
| 20260505184518 | -17 | 320 | 12.9 | 33.8 | 0.00 | 0.00 | 0.00 | 1001.9 | |
| 20260505183016 | -17 | 360 | 9.7 | 25.7 | 0.00 | 0.00 | 0.00 | 1001.4 | |
| 20260505181507 | -17 | 263 | 14.5 | 29.0 | 0.00 | 0.00 | 0.00 | 1001.1 | |
| 20260505180001 | -17 | 212 | 12.9 | 29.0 | 0.00 | 0.00 | 0.00 | 1000.6 | |
| 20260505174557 | -17 | 300 | 16.1 | 35.4 | 0.00 | 0.00 | 0.00 | 1000.3 | |
| 20260505173052 | -17 | 360 | 19.3 | 30.6 | 0.00 | 0.00 | 0.00 | 1000.1 | |
| 20260505171548 | -17 | 350 | 11.3 | 30.6 | 0.00 | 0.00 | 0.00 | 999.6 | |
| 20260505170043 | -17 | 244 | 9.7 | 24.1 | 0.00 | 0.00 | 0.00 | 999.3 | |
| 20260505164539 | -17 | 260 | 8.0 | 30.6 | 0.00 | 0.00 | 0.00 | 999.1 | |
| 20260505163033 | -17 | 338 | 14.5 | 30.6 | 0.00 | 0.00 | 0.00 | 998.8 | |
| 20260505161529 | -17 | 121 | 14.5 | 32.2 | 0.00 | 0.00 | 0.00 | 998.7 | |
| 20260505153024 | -17 | 225 | 12.9 | 27.4 | 0.00 | 0.00 | 0.00 | 997.7 | |
| 20260505151510 | -17 | 276 | 14.5 | 37.0 | 0.00 | 0.00 | 0.00 | 997.3 | |
| 20260505124522 | -67 | 169 | 3.2 | 17.7 | 0.00 | 0.00 | 0.00 | 994.7 | |
| 20260505123021 | -67 | 342 | 6.4 | 12.9 | 0.00 | 0.00 | 0.00 | 994.3 | |
| 20260505121515 | -67 | 67 | 6.4 | 16.1 | 0.00 | 0.00 | 0.00 | 994.0 | |
| 20260505120009 | -67 | 157 | 4.8 | 14.5 | 0.00 | 0.00 | 0.00 | 993.7 | |
| 20260505114503 | -67 | 338 | 3.2 | 9.7 | 0.00 | 0.00 | 0.00 | 993.1 | |
| 20260505113059 | -67 | 276 | 6.4 | 17.7 | 0.00 | 0.00 | 0.00 | 992.9 | |
| 20260505111559 | -67 | 141 | 6.4 | 19.3 | 0.00 | 0.00 | 0.00 | 992.7 | |
| 20260505101539 | -67 | 186 | 14.5 | 25.7 | 0.00 | 0.00 | 0.00 | 991.9 | |
| 20260505100033 | -67 | 179 | 16.1 | 29.0 | 0.00 | 0.00 | 0.00 | 991.6 | |
| 20260505094528 | -67 | 178 | 19.3 | 29.0 | 0.00 | 0.00 | 0.00 | 991.4 | |
| 20260505093021 | -67 | 189 | 17.7 | 25.7 | 0.00 | 0.00 | 0.00 | 991.2 | |
| 20260505091522 | -67 | 173 | 17.7 | 29.0 | 0.00 | 0.00 | 0.00 | 990.8 | |
| 20260505090011 | -67 | 192 | 19.3 | 32.2 | 0.00 | 0.00 | 0.00 | 990.7 |